Location: Arlington
(40.6323°N, 74.1651°W)
Time: 09:47:56
(UTC+00:00)

ATLAS 2AS CENTAUR R/B - Pass Details

Date: 22 November 2019
Orbit: 926 x 1286 km, 63.7° (Epoch: 09 December)

Event Time Altitude Azimuth Distance (km) Brightness Sun altitude
Rises 22:38:50 0° 164° (SSE) 4,134 5.8 -12.3°
Reaches altitude 10° 22:42:23 10° 149° (SSE) 3,217 5.0 -12.9°
Maximum altitude 22:47:46 20° 105° (ESE) 2,558 4.2 -13.9°
Enters shadow 22:49:58 18° 84° (E) 2,701 4.2 -14.3°
